Location: *
(40.7873°S, 98.7174°E)
Time: 10:46:43
(UTC+00:00)

USA 215 - Pass Details

Date: 24 May 2022
Orbit: 1099 x 1108 km, 123.0° (Epoch: 10 June)

Event Time Altitude Azimuth Distance (km) Brightness Sun altitude
Rises 11:20:47 0° 51° (NE) 3,928 5.8 -13.2°
Reaches altitude 10° 11:23:15 10° 52° (NE) 2,975 5.2 -13.7°
Maximum altitude 11:29:51 85° 138° (SE) 1,126 3.2 -14.9°
Drops below altitude 10° 11:36:30 10° 226° (SW) 2,994 6.0 -16.1°
Sets 11:39:00 0° 226° (SW) 3,955 6.6 -16.5°
